Time,TemperatureF,DewpointF,PressureIn,WindDirection,WindDirectionDegrees,WindSpeedMPH,WindSpeedGustMPH,Humidity,HourlyPrecipIn,Conditions,Clouds,dailyrainin,SoftwareType,DateUTC
2013-06-24 01:00:00,47.0,-99.9,-100.00,East,94,2.0,4.0,-999,-99.99,,,0.01,,2013-06-24 08:00:00,
2013-06-24 02:00:00,46.0,-99.9,-100.00,SE,126,2.0,5.0,-999,-99.99,,,0.01,,2013-06-24 09:00:00,
2013-06-24 03:00:00,46.0,-99.9,-100.00,East,101,2.0,5.0,-999,-99.99,,,0.02,,2013-06-24 10:00:00,
2013-06-24 04:00:00,45.0,-99.9,-100.00,NNE,12,3.0,6.0,-999,-99.99,,,-99.99,,2013-06-24 11:00:00,
2013-06-24 05:00:00,45.0,-99.9,-100.00,East,89,2.0,4.0,-999,-99.99,,,0.01,,2013-06-24 12:00:00,
2013-06-24 06:00:00,44.0,-99.9,-100.00,East,95,2.0,4.0,-999,-99.99,,,0.01,,2013-06-24 13:00:00,
2013-06-24 07:00:00,45.0,-99.9,-100.00,ESE,104,1.0,3.0,-999,-99.99,,,0.01,,2013-06-24 14:00:00,
2013-06-24 08:00:00,44.0,-99.9,-100.00,SE,140,1.0,2.0,-999,-99.99,,,0.02,,2013-06-24 15:00:00,
2013-06-24 09:00:00,43.0,-99.9,-100.00,ESE,108,1.0,3.0,-999,-99.99,,,0.01,,2013-06-24 16:00:00,
2013-06-24 11:00:00,43.0,-99.9,-100.00,East,87,2.0,3.0,-999,-99.99,,,0.02,,2013-06-24 18:00:00,
2013-06-24 12:00:00,43.0,-99.9,-100.00,SE,144,1.0,4.0,-999,-99.99,,,0.02,,2013-06-24 19:00:00,
2013-06-24 14:00:00,43.0,-99.9,-100.00,SE,132,0.0,2.0,-999,-99.99,,,0.02,,2013-06-24 21:00:00,
2013-06-24 14:56:00,43.0,-99.9,-100.00,SE,132,0.0,2.0,-999,-99.99,,,0.02,,2013-06-24 21:56:00,
2013-06-24 15:00:00,43.0,-99.9,-100.00,ESE,121,8.0,131.0,-999,-99.99,,,0.02,,2013-06-24 22:00:00,
2013-06-24 15:51:00,43.0,-99.9,-100.00,ESE,121,8.0,131.0,-999,-99.99,,,0.02,,2013-06-24 22:51:00,
2013-06-24 15:56:00,43.0,-99.9,-100.00,ESE,121,8.0,131.0,-999,-99.99,,,0.02,,2013-06-24 22:56:00,
2013-06-24 16:00:00,44.0,-99.9,-100.00,ESE,111,50.0,133.0,-999,-99.99,,,-99.99,,2013-06-24 23:00:00,
2013-06-24 16:47:00,44.0,-99.9,-100.00,ESE,111,50.0,133.0,-999,-99.99,,,-99.99,,2013-06-24 23:47:00,
2013-06-24 16:56:00,44.0,-99.9,-100.00,ESE,111,50.0,133.0,-999,-99.99,,,-99.99,,2013-06-24 23:56:00,
2013-06-24 18:00:00,44.0,-99.9,-100.00,NW,308,83.0,173.0,-999,-99.99,,,0.01,,2013-06-25 01:00:00,
2013-06-24 19:00:00,44.0,-99.9,-100.00,East,80,9.0,163.0,-999,-99.99,,,0.02,,2013-06-25 02:00:00,
2013-06-24 20:00:00,44.0,-99.9,-100.00,SE,127,1.0,2.0,-999,-99.99,,,0.01,,2013-06-25 03:00:00,
2013-06-24 21:00:00,44.0,-99.9,-100.00,East,86,1.0,2.0,-999,-99.99,,,0.01,,2013-06-25 04:00:00,
2013-06-24 22:00:00,44.0,-99.9,-100.00,ESE,119,1.0,2.0,-999,-99.99,,,0.01,,2013-06-25 05:00:00,
2013-06-24 23:00:00,43.0,-99.9,-100.00,East,101,0.0,1.0,-999,-99.99,,,0.01,,2013-06-25 06:00:00,